Vertical_Velocity
1 1 -2 -2 -0 1 -4 -1 -1 5 -2 -1 -0 -0 -3 -0 -1 -1 0 -4 1 0 -0 -0 -1 -2 -0 1 -0 -1 1 -1 -0 2 0 -0 0 0 -1 1 1 0 2 -2
5 1 1 1 -1 1 -5 -1 2 0 7 -1 0 -1 -0 -1 1 1 -1 0 1 -0 -0 -1 -2 0 1 1 -1 -1 -2 0 -0 3 2 -0 -2 1 -0 -0 -1 -2 3 0
4 -1 -2 4 3 -1 -2 -0 -1 4 4 1 1 0 -1 1 1 0 -0 -2 3 0 -1 -1 1 1 1 0 -0 1 -3 -0 -1 -5 0 -2 1 1 0 -2 -0 -2 -7 -6
3 -1 -6 2 -4 4 -4 1 -3 -7 -1 -2 1 1 -1 1 1 -1 1 0 0 -2 -0 0 0 0 1 -1 1 -1 -2 -1 -0 0 -0 0 -1 -0 -0 1 -4 2 -6 2
-1 -2 -0 -1 2 0 0 -1 -2 4 0 2 4 -1 -0 -3 2 -2 1 1 0 -1 -2 0 -1 -3 -1 -1 -0 -1 -0 2 -1 -1 -0 1 1 -1 0 -0 -2 1 2 -10
-1 -2 1 2 1 -0 -1 3 1 2 1 1 0 -3 0 0 -2 1 -2 -5 -4 -2 1 -0 1 1 -0 -2 -2 0 -1 -1 1 0 -0 0 3 -3 -1 -0 -0 4 3 -4
-4 -0 -1 1 1 3 -6 4 0 1 1 -1 -2 -0 -2 -0 0 -5 1 -0 -3 2 2 -0 -1 -3 -1 -1 1 -1 -1 -1 -1 -0 1 2 6 1 -1 1 -1 -0 -2 -1
-0 1 -1 -2 1 -10 -2 4 -1 1 0 -1 1 1 -2 0 3 -2 -2 1 1 1 -2 -1 1 0 1 3 1 0 -1 -1 0 0 0 0 5 1 0 3 -1 2 2 -0
-0 0 4 0 2 0 2 0 -2 4 -6 0 1 -2 -1 -2 0 -1 1 0 -0 -1 -1 -1 -1 0 0 3 2 -0 0 -1 -2 1 1 -0 2 -3 1 2 3 2 2 0
-0 2 0 2 2 -5 -0 1 1 5 -7 -1 1 -1 -3 -0 -1 -1 -0 -0 0 1 -0 -1 -0 1 0 0 -0 1 1 2 -1 -0 -0 1 2 -1 1 8 10 2 1 3
1 1 -0 0 -2 1 3 -1 1 2 -3 2 3 1 -3 -0 -0 -2 0 -3 -4 -1 -3 -1 -0 -0 1 -1 -1 2 -1 1 -0 1 2 1 1 -3 -3 5 4 1 -0 2
-1 -1 0 -1 -2 0 2 -0 2 2 -5 0 2 5 1 -0 -0 -11 -1 -2 -0 -1 -2 1 -0 0 0 -0 1 -1 -0 2 0 4 3 3 1 1 2 1 -0 3 -2 0
1 -1 -3 1 -2 -0 -1 2 3 1 -9 1 0 1 0 2 1 -1 -9 1 -1 0 1 -2 -0 -1 -0 -0 1 0 -0 0 -1 4 5 2 3 2 -0 1 -2 -0 -0 -2
0 1 -1 -2 2 -0 2 -1 3 3 -2 -8 3 7 -4 3 2 -1 -3 -9 -2 -4 -1 -1 -1 -2 -0 1 -1 -1 -0 -1 0 2 3 2 1 1 1 1 0 -0 2 0
1 1 -1 1 1 3 2 3 0 2 -2 -6 0 4 4 5 5 -3 -2 -1 -3 -1 -1 -1 1 0 -1 1 -1 0 -0 -2 -0 -0 1 -2 4 4 3 1 2 2 1 0
0 -0 3 0 1 1 3 -5 2 -0 -4 -13 -1 2 2 2 -1 -2 -1 -2 -4 -1 -1 1 -0 -0 -1 -1 -0 -0 1 0 -2 -1 0 -1 0 2 2 -3 -0 1 1 3
2 3 -3 -1 -2 -2 -4 -2 1 0 -2 -7 -0 0 0 1 3 -1 -1 -0 -2 -2 -1 -0 -0 0 -1 -0 -0 -1 2 0 -2 -2 -7 0 3 -2 1 -1 0 -1 -2 1
1 -3 -1 -0 1 -5 -2 0 2 -2 -3 -2 -2 1 0 2 -0 -1 -0 -1 0 -1 0 -0 -0 1 -0 1 1 2 1 1 3 -0 -1 0 -2 1 1 2 1 2 2 1
-1 0 2 -1 -2 -4 -2 -0 -2 -3 -3 -4 -2 -3 -2 2 0 0 -1 -1 -1 0 -0 0 0 0 -1 -3 -3 -2 -4 -5 -2 2 1 1 1 0 0 -0 -1 -1 -2 -1
1 1 -1 -3 -3 2 0 -4 -2 -2 -3 -3 -2 0 1 0 -0 0 -1 -1 0 -0 -0 -1 0 -1 -0 -1 0 2 0 -1 -2 -5 3 1 1 1 0 0 1 1 0 -1
-3 -5 -5 1 0 -2 -3 -3 -4 -1 -1 -0 1 -0 -1 -1 -2 -1 -0 -0 -0 0 0 -0 -0 -1 1 2 1 2 -0 -0 4 3 1 2 2 -1 -2 -1 0 -0 -2 -1
-4 -8 -2 -0 -1 -3 -7 0 -0 -1 1 -0 -1 0 -0 0 -0 -2 0 -0 2 0 -1 1 0 2 3 2 1 1 1 -1 1 1 -0 0 0 1 -0 -1 1 -0 -0 -1
-3 -5 -4 -3 0 -6 -4 0 1 -0 -0 -0 0 -0 0 -0 -0 -1 -1 -0 1 2 3 -1 1 1 3 1 -1 -1 0 1 1 0 1 0 -0 -0 0 -3 1 1 -1 -1
-6 -2 -1 -6 0 -1 -1 -1 -1 -0 -1 1 0 -1 -1 -1 -2 0 0 -2 2 -0 0 -2 -0 -2 -2 1 1 -1 -1 0 1 1 2 -1 -0 0 -3 -1 -1 1 -2 -3
-4 -1 -1 -0 -1 0 -0 1 1 2 0 -0 -1 -1 -0 0 -2 -1 0 0 -0 -1 -3 -1 -1 -1 -0 -0 -1 -1 -1 -0 0 -0 -0 -1 -1 -2 -1 0 -0 -2 -2 -1
-2 -2 -1 0 -1 1 -0 2 0 3 0 1 -0 -1 -2 -0 -1 0 -1 -0 -2 -3 -0 -0 0 0 0 -2 -1 0 1 0 -0 0 -0 -1 -0 1 -0 -2 -2 -1 0 0
-1 -1 2 0 0 0 1 -1 -0 -2 -1 -0 -0 -2 -4 -2 1 0 -0 -2 -1 -0 0 -1 -0 -1 -3 -0 1 -0 -1 -1 -0 -1 -1 -1 -1 -1 -1 -1 1 1 -0 -1
Height
1397 1399 1401 1402 1402 1405 1411 1416 1418 1419 1422 1427 1425 1426 1420 1420 1418 1419 1419 1424 1423 1419 1416 1416 1424 1426 1429 1431 1430 1431 1435 1434 1438 1445 1444 1443 1442 1443 1443 1438 1442 1449 1445 1429
1393 1395 1397 1397 1400 1404 1410 1414 1416 1419 1421 1421 1421 1420 1418 1419 1418 1419 1423 1422 1423 1419 1420 1421 1424 1428 1432 1430 1430 1433 1434 1439 1442 1444 1447 1445 1446 1448 1449 1451 1454 1453 1444 1425
1389 1392 1394 1395 1397 1402 1408 1412 1416 1420 1423 1421 1420 1418 1416 1417 1417 1419 1420 1421 1422 1419 1422 1421 1424 1427 1430 1430 1432 1433 1434 1440 1437 1433 1440 1445 1449 1451 1453 1456 1457 1450 1438 1431
1385 1389 1392 1395 1398 1401 1406 1408 1409 1410 1420 1418 1418 1417 1413 1415 1418 1419 1419 1420 1420 1418 1420 1424 1428 1429 1431 1434 1435 1437 1438 1441 1442 1443 1448 1448 1448 1447 1449 1453 1451 1451 1439 1439
1383 1386 1390 1393 1396 1399 1404 1403 1405 1407 1407 1410 1415 1416 1411 1412 1416 1416 1418 1421 1420 1419 1421 1422 1426 1428 1432 1434 1438 1441 1443 1447 1449 1450 1447 1449 1449 1444 1444 1446 1447 1445 1440 1435
1379 1383 1387 1390 1393 1399 1400 1401 1402 1402 1405 1407 1410 1409 1408 1411 1413 1418 1416 1419 1421 1423 1426 1426 1428 1430 1433 1434 1438 1442 1445 1449 1452 1450 1448 1446 1445 1440 1440 1441 1442 1443 1441 1432
1377 1382 1385 1388 1392 1395 1398 1399 1400 1401 1403 1403 1403 1404 1407 1410 1412 1415 1419 1420 1421 1426 1426 1428 1429 1432 1435 1437 1440 1442 1447 1448 1451 1450 1451 1453 1444 1447 1446 1450 1445 1448 1445 1438
1376 1380 1383 1386 1390 1393 1396 1398 1399 1398 1401 1402 1404 1406 1409 1412 1415 1418 1420 1422 1423 1424 1425 1428 1429 1433 1434 1440 1442 1443 1444 1446 1450 1451 1448 1440 1445 1450 1453 1449 1445 1451 1448 1442
1374 1378 1382 1385 1388 1392 1396 1396 1398 1397 1399 1407 1406 1408 1410 1413 1417 1420 1422 1423 1423 1425 1429 1430 1432 1435 1434 1438 1441 1444 1445 1446 1449 1451 1450 1444 1451 1450 1449 1448 1439 1450 1448 1445
1374 1378 1382 1385 1388 1391 1394 1394 1396 1397 1399 1406 1407 1409 1412 1414 1417 1421 1424 1424 1425 1425 1431 1439 1438 1437 1437 1438 1442 1439 1445 1449 1448 1449 1445 1443 1454 1449 1446 1440 1450 1451 1449 1444
1374 1378 1382 1385 1388 1391 1392 1393 1394 1396 1400 1407 1407 1410 1412 1414 1417 1420 1424 1425 1426 1428 1431 1435 1444 1439 1440 1442 1451 1441 1440 1441 1443 1444 1446 1445 1454 1448 1448 1456 1455 1454 1451 1451
1375 1379 1383 1385 1387 1389 1391 1393 1394 1396 1399 1409 1411 1412 1414 1416 1417 1418 1423 1426 1427 1428 1432 1436 1438 1437 1443 1444 1438 1447 1445 1450 1448 1452 1453 1458 1458 1458 1458 1456 1455 1455 1455 1455
1375 1379 1383 1385 1386 1388 1391 1393 1394 1397 1403 1411 1414 1416 1418 1419 1419 1420 1422 1425 1426 1427 1427 1432 1437 1437 1440 1438 1444 1448 1449 1451 1450 1454 1458 1459 1460 1460 1459 1458 1457 1458 1457 1458
1377 1380 1383 1385 1386 1388 1391 1393 1395 1397 1402 1411 1420 1419 1420 1421 1421 1420 1420 1422 1425 1427 1429 1432 1435 1435 1440 1442 1445 1447 1450 1450 1450 1455 1458 1459 1460 1460 1460 1460 1460 1460 1461 1461
1378 1381 1384 1386 1387 1389 1392 1394 1396 1397 1401 1411 1420 1422 1424 1424 1424 1423 1425 1426 1427 1429 1431 1433 1436 1439 1441 1444 1447 1448 1449 1450 1449 1450 1456 1457 1460 1461 1461 1461 1462 1462 1462 1463
1380 1383 1385 1387 1389 1391 1393 1396 1399 1399 1401 1409 1420 1426 1426 1426 1427 1428 1429 1428 1429 1430 1432 1436 1438 1439 1441 1444 1445 1449 1449 1450 1451 1453 1455 1457 1460 1461 1462 1462 1463 1464 1464 1465
1381 1384 1387 1389 1391 1392 1393 1397 1400 1401 1403 1408 1421 1425 1428 1429 1430 1430 1431 1431 1431 1432 1435 1437 1438 1440 1441 1443 1443 1447 1449 1450 1451 1454 1457 1460 1461 1463 1464 1465 1465 1466 1467 1467
1382 1386 1389 1392 1393 1395 1397 1398 1400 1403 1404 1408 1419 1427 1428 1429 1430 1431 1432 1432 1433 1435 1437 1438 1439 1440 1441 1440 1445 1447 1449 1451 1453 1455 1456 1458 1460 1462 1463 1465 1466 1467 1467 1468
1386 1389 1391 1393 1395 1397 1401 1402 1404 1405 1409 1411 1417 1423 1428 1428 1430 1431 1433 1433 1436 1438 1437 1438 1440 1441 1439 1439 1442 1445 1447 1450 1452 1454 1456 1459 1461 1463 1464 1466 1466 1467 1468 1470
1388 1392 1393 1397 1400 1401 1403 1406 1407 1408 1409 1412 1418 1422 1424 1428 1430 1433 1435 1435 1436 1436 1438 1438 1439 1437 1439 1439 1442 1445 1447 1449 1451 1453 1458 1460 1462 1464 1465 1467 1468 1469 1470 1471
1391 1393 1397 1401 1402 1403 1405 1408 1411 1414 1415 1417 1420 1421 1423 1427 1429 1431 1434 1435 1437 1437 1435 1437 1437 1434 1437 1439 1442 1445 1447 1450 1452 1454 1455 1458 1461 1463 1465 1467 1468 1469 1471 1472
1392 1393 1399 1402 1405 1407 1410 1415 1417 1416 1416 1419 1420 1422 1424 1426 1428 1430 1435 1433 1435 1430 1435 1436 1429 1437 1438 1439 1442 1445 1447 1450 1452 1454 1456 1458 1461 1463 1464 1467 1468 1470 1471 1473
1395 1398 1402 1405 1410 1414 1418 1420 1417 1418 1417 1418 1420 1423 1424 1427 1428 1431 1433 1435 1428 1433 1429 1427 1432 1437 1439 1440 1443 1445 1447 1449 1451 1453 1456 1458 1460 1462 1465 1467 1469 1470 1472 1474
1398 1402 1408 1413 1414 1416 1415 1415 1415 1416 1416 1417 1419 1422 1423 1426 1429 1432 1432 1434 1434 1431 1429 1426 1432 1435 1438 1441 1443 1446 1448 1450 1452 1453 1455 1458 1460 1462 1465 1468 1470 1471 1473 1475
1401 1405 1412 1413 1413 1413 1414 1414 1415 1417 1418 1419 1421 1423 1425 1428 1431 1431 1433 1434 1432 1428 1426 1427 1429 1432 1436 1440 1444 1446 1448 1450 1452 1454 1456 1458 1461 1464 1466 1469 1471 1474 1475 1476
1405 1408 1411 1413 1413 1414 1415 1416 1418 1419 1420 1421 1422 1426 1429 1430 1430 1430 1431 1429 1428 1424 1427 1428 1429 1433 1437 1441 1444 1446 1448 1450 1452 1454 1457 1460 1463 1466 1468 1471 1473 1474 1476 1477
1409 1413 1413 1413 1415 1416 1418 1419 1421 1422 1423 1423 1425 1429 1429 1429 1427 1427 1427 1426 1425 1426 1427 1428 1431 1434 1437 1441 1444 1446 1448 1450 1453 1455 1459 1462 1465 1468 1470 1472 1474 1475 1476 1477